Regional Weather Roundup
Issued by NWS

Home | Current Version | Previous Version | Text Only | Print | Product List | Glossary On
Versions: 1 2 3 4 5 6 7 8 9 10 11 12 13 14 15 16 17 18 19 20 21 22 23 24 25 26 27 28 29 30 31 32 33 34 35 36 37 38 39 40 41 42 43 44 45 46
000
ASUS46 KPQR 302010
RWROR

OREGON REGIONAL WEATHER ROUNDUP
NATIONAL WEATHER SERVICE PORTLAND OR
100 PM PDT THU JUL 30 2015

NOTE: "FAIR" INDICATES FEW OR NO CLOUDS BELOW 12,000 FEET WITH
NO SIGNIFICANT WEATHER AND/OR OBSTRUCTIONS TO VISIBILITY.

ORZ001>013-302100-
NORTHWEST OREGON


CITY           SKY/WX    TMP DP  RH WIND       PRES   REMARKS
ASTORIA        SUNNY     83  57  41 NW10      30.03S
NEWPORT        SUNNY     68  54  60 NW8       30.06S
PORTLAND       MOSUNNY   91  53  27 W9        29.99F
VANCOUVER WA   SUNNY     93  51  23 NW7       29.99F HX  90
SCAPPOOSE      SUNNY     97  47  18 N7        29.99F HX  93
HILLSBORO      SUNNY     94  50  22 CALM      30.00F HX  91
AURORA         SUNNY     94  49  21 N7        30.01F HX  90
MCMINNVILLE    SUNNY     96  51  21 CALM      30.01F HX  93
SALEM          SUNNY     92  52  25 NW7       30.00F
CORVALLIS      SUNNY     93  48  21 NE6       30.02F HX  90
EUGENE         SUNNY     93  46  19 NE3       30.01F
$$

ORZ021-028-302100-
SOUTHWEST OREGON


CITY           SKY/WX    TMP DP  RH WIND       PRES   REMARKS
NORTH BEND     SUNNY     68  57  68 W9        30.05S
BROOKINGS      SUNNY     68  59  73 SW6       30.07S
ROSEBURG       SUNNY     95  50  21 CALM      30.00F HAZE    HX  92
SEXTON SUMMIT  SUNNY     89  41  18 VRB3      30.22S
MEDFORD        SUNNY     97  42  15 NE3       30.03F HX  93
$$

ORZ014>016-041-302100-
COLUMBIA GORGE


CITY           SKY/WX    TMP DP  RH WIND       PRES   REMARKS
TROUTDALE      SUNNY     92  54  27 VRB5      29.98F HX  90
THE DALLES     SUNNY     98  33  10 VRB5      30.01F HX  92
$$

ORZ029>031-041-044-049-050-061>064-502-503-505>511-302100-
EASTERN OREGON


CITY           SKY/WX    TMP DP  RH WIND       PRES   REMARKS
REDMOND        SUNNY     95  31  10 VRB7      30.16F
BEND           SUNNY     91  32  12 SW8       30.19F
PRINEVILLE     SUNNY     95  27   8 SW5G25    30.16F
KLAMATH FALLS  SUNNY     89  29  11 VRB3      30.24F
LAKEVIEW       SUNNY     91  28  10 S9        30.28S
HERMISTON      SUNNY     94  46  19 N7        30.04F HX  90
PENDLETON      SUNNY     98  32  10 NW8       30.08F HX  92
JOHN DAY       SUNNY     93  29  10 NE8       30.23F
MEACHAM        SUNNY     90  30  11 VRB3      30.24S
LA GRANDE      SUNNY     90  45  20 CALM      30.18F
BAKER CITY     SUNNY     90  35  14 VRB5      30.23F
BURNS          SUNNY     90  23   9 CALM      30.27F
ROME             N/A     93  21   7 VRB3      30.25F
ONTARIO        SUNNY     88  40  18 VRB3      30.20F
$$



USA.gov is the U.S. government's official web portal to all federal, state and local government web resources and services.